map of ROV home
Great Circle Mapper logo
ROV - Airport
Location
City:  Rostov Na Donu, Russian Federation (Russia)
ICAO / IATA:URRR / ROV

Details
Type:Airport (Aerodrome, Airfield)
Use:Public/Civil
Latitude:4715'30"N (47.258208)
Longitude:3949'05"E (39.818089)
Datum:WGS 1984
Elevation:280 ft (85 m)
Runways:3
Longest:8202 × 148 ft (2500 × 45 m), paved

Time
Time Zone:UTC+3 (DST+4)

Weather
METAR:URRR 212030Z 25006G10MPS 6000 -SHRA BKN005 BKN033CB OVC100 12/11 Q1007 22290045 TEMPO 2000 BKN004 BKN020CB RMK QBB150 MAST OBSC
TAF:URRR 211958Z 2121/2221 24006G11MPS 2100 -SHRA BR BKN004 BKN020CB
TEMPO 2121/2206 0400 FG BKN002 BKN020CB
BECMG 2207/2209 9999 NSW BKN007 BKN020CB
TEMPO 2215/2221 VRB02MPS -SHRA

Related Locations
Nearby:
Farthest:NTAV: 10767 mi / 17328 km
Raivavae, Tubuai Islands, Austral Islands, PF

Find:

   beyond  
but within

Other Information
Maps:
NOTAMs:
Links:
Sources:

  
flag of Russian Federation (Russia)   

Sectional Chart

Flight Planning
at skyvector.com

Satellite Image

Google Maps Satellite View

 

Copyright © 2004-2014 Karl L. Swartz. All rights reserved.
The Great Circle Mapper name and logo are trademarks of the Great Circle Mapper.
All other trademarks mentioned herein belong to their respective owners.
Please see credits for attibutions and further copyright information.

  Follow gcmap on Facebook Follow gcmap on Twitter

hCard Microformat

Geo Microformat